GFSWCAN_2pvu_pres_012.txt.gz
Presure
286 260 231 235 220 214 215 207 198 222 208 219 239 216 205 209 196 197 204 200 191 198 200 197 195 195 196 188 193 224 220 212 202 199 188 188 191 195 185 196 203 202 196 202 205 204 202 203 211 198 200 203 211 215
259 236 236 226 218 217 212 205 198 216 192 222 220 229 205 201 212 197 203 200 190 191 197 197 197 188 195 189 199 199 191 187 192 194 192 188 191 189 193 195 197 196 203 195 190 91 209 203 199 200 210 209 216 205
248 229 234 226 213 216 214 206 198 237 222 226 197 227 219 201 206 197 204 193 188 195 197 191 197 193 193 186 193 193 193 190 188 186 194 189 195 194 194 188 190 189 198 198 191 193 206 205 208 213 212 216 203 192
241 230 231 224 214 213 211 204 205 220 223 221 205 218 237 205 199 209 196 196 199 203 198 177 186 194 195 199 191 192 190 191 192 195 191 191 188 184 192 197 186 184 199 202 166 209 204 205 207 202 199 202 191 200
231 229 228 222 218 213 207 208 207 213 224 224 216 201 219 220 204 202 213 187 193 200 199 200 203 197 189 186 189 192 195 194 192 192 193 197 196 120 197 166 156 177 199 139 210 209 178 206 207 202 195 190 205 192
229 229 229 227 207 213 213 214 204 211 204 221 223 225 220 212 200 207 205 200 201 199 195 187 191 201 205 192 200 192 191 192 191 199 195 194 198 194 179 181 144 136 216 212 212 204 200 204 199 193 206 193 193 200
232 230 234 225 214 216 216 212 207 197 210 204 205 205 220 237 232 215 207 208 193 203 199 200 205 191 191 194 199 200 202 201 199 196 194 201 203 199 195 186 116 203 210 195 203 207 194 194 199 198 193 201 204 204
240 231 226 230 220 201 220 207 212 205 211 208 203 207 205 197 204 210 235 233 233 229 208 220 210 212 207 203 200 203 208 209 208 201 207 197 201 208 209 164 199 201 203 201 200 194 191 191 194 195 206 202 206 213
247 240 223 238 230 217 216 221 210 205 209 207 209 212 206 205 208 208 202 198 201 198 226 229 230 227 220 210 205 210 220 223 222 202 207 207 222 215 207 206 207 202 198 197 193 195 195 192 203 201 207 214 209 201
251 240 233 231 231 227 206 213 218 217 206 204 208 211 206 203 203 210 204 204 192 203 194 199 208 210 203 214 218 224 220 221 215 199 212 210 204 202 200 194 193 195 194 199 207 202 200 200 200 212 218 211 204 224
252 240 240 241 225 231 229 220 210 209 218 216 211 202 209 204 212 208 204 204 209 198 204 200 190 196 198 200 207 211 210 207 207 207 208 197 189 191 200 189 194 200 202 203 204 204 212 213 211 211 213 225 220 223
248 252 222 245 238 233 226 229 227 227 209 203 210 218 217 214 219 214 204 206 207 201 198 197 203 205 200 193 195 193 196 199 201 201 200 197 199 200 201 201 202 205 207 207 211 210 211 214 215 224 221 224 223 222
246 253 251 248 247 261 237 222 208 209 226 230 225 212 209 213 219 218 213 212 215 209 208 204 196 201 207 207 208 208 206 209 211 209 211 208 207 205 207 209 210 211 213 212 213 219 223 224 223 221 224 231 228 231
267 251 258 266 269 267 270 265 246 243 229 222 216 217 219 220 223 228 226 222 219 215 209 217 221 211 209 207 208 208 210 210 208 208 207 209 212 213 216 220 220 221 220 216 219 224 227 230 236 235 233 237 258 255
251 233 248 247 246 232 239 243 242 251 245 233 260 241 238 236 230 239 238 232 227 225 235 224 220 220 216 216 221 211 216 218 224 224 219 220 222 223 224 225 224 224 229 233 233 232 236 241 258 264 239 230 253 251
241 243 249 243 249 239 256 263 245 242 266 270 256 251 246 268 256 255 262 255 243 236 234 232 233 225 219 226 226 223 218 227 227 227 229 229 232 230 236 240 244 246 247 261 270 249 260 261 269 274 276 266 246 255
238 246 244 251 240 243 241 248 252 235 222 251 240 250 245 259 267 255 279 271 272 282 255 272 257 254 242 237 230 231 233 236 233 238 240 245 248 250 252 267 270 263 260 269 267 269 220 239 235 255 271 293 282 286
248 243 247 245 243 250 252 247 248 249 248 247 246 262 235 258 255 245 266 271 253 249 251 287 252 266 262 281 275 265 263 264 263 267 259 257 257 257 261 267 277 276 264 239 237 251 254 266 294 288 292 282 276 311
254 258 255 251 251 259 254 251 251 253 261 246 252 243 241 241 237 234 234 215 237 229 233 255 258 271 271 274 265 247 267 273 282 271 259 246 247 245 245 250 267 288 278 277 280 285 284 287 275 271 293 320 314 311
262 261 254 252 256 257 253 256 244 255 257 263 265 267 261 262 260 269 270 266 271 264 269 230 231 238 278 264 251 248 270 271 240 255 241 271 273 279 277 249 275 269 271 269 273 263 271 311 324 315 314 318 316 314
291 280 277 270 266 270 282 283 283 300 303 300 307 308 308 302 297 289 283 282 283 282 282 282 282 281 283 291 294 284 282 280 280 283 287 288 281 278 272 271 266 266 265 267 314 315 315 314 314 313 308 305 317 321
315 322 324 326 325 303 328 294 333 322 331 326 292 292 282 280 280 283 280 273 261 265 269 270 272 274 274 275 274 273 273 268 268 263 266 309 320 320 318 317 316 318 316 314 315 316 317 315 337 338 347 393 411 411
309 311 317 315 318 315 307 307 311 321 322 327 328 328 328 326 322 323 320 321 325 327 327 327 328 330 330 329 329 330 330 329 330 329 328 327 328 329 329 328 332 329 329 329 352 366 398 396 395 399 406 400 398 393
319 319 318 318 322 318 320 320 323 319 326 333 335 338 337 337 340 342 343 346 354 351 350 349 348 344 342 341 344 343 343 342 344 351 355 357 361 365 368 369 376 386 399 384 396 401 402 403 395 388 385 383 380 378
334 340 344 347 345 344 344 345 349 350 352 345 364 361 360 357 355 352 349 346 350 351 357 360 361 360 353 351 351 352 128 348 347 349 354 357 365 371 376 405 400 412 402 392 392 388 392 384 380 378 380 381 378 372
388 390 439 430 412 412 378 378 377 373 373 371 367 362 359 357 306 356 354 351 350 351 348 347 345 345 341 341 341 341 341 341 343 344 348 347 364 369 394 393 387 381 382 385 391 391 378 372 370 375 377 374 368 365
436 446 427 418 412 408 415 414 409 349 343 345 345 346 344 341 342 336 334 332 328 328 329 329 327 327 331 345 348 348 327 324 355 381 391 381 376 373 374 375 379 378 375 370 365 366 381 393 390 382 373 362 361 355
379 383 378 375 387 382 383 390 392 386 381 328 334 331 334 333 332 331 329 326 323 322 322 341 354 350 349 343 347 345 365 382 380 373 365 363 365 372 385 390 395 399 403 414 402 385 375 371 368 366 362 358 353 349
369 365 362 360 370 369 369 366 359 368 364 353 324 322 320 320 320 320 326 346 340 342 346 351 339 337 342 348 362 370 374 361 358 362 381 400 410 403 394 371 367 363 357 356 358 360 357 355 354 353 351 349 348 345
353 358 354 349 351 353 354 354 352 345 343 341 317 318 327 334 339 340 344 346 346 346 337 337 346 355 368 383 379 361 361 372 383 378 352 347 349 350 350 348 346 347 346 347 347 349 354 358 360 360 366 395 401 425
326 334 339 342 347 347 346 345 345 345 345 344 345 345 346 350 340 342 338 338 344 352 359 368 379 373 355 356 363 369 361 347 345 346 345 344 344 345 343 335 331 335 347 356 359 357 391 426 407 381 368 519 588 144
334 334 331 329 327 326 327 326 324 324 328 330 333 339 346 350 352 355 358 362 371 389 358 349 351 356 358 353 339 338 341 343 342 343 343 325 318 327 359 362 359 354 352 354 415 387 364 363 365 358 359 591 568 145
354 353 352 356 358 362 368 375 373 367 367 360 354 368 362 362 367 356 351 346 345 347 355 367 347 334 339 344 349 344 341 327 313 321 355 361 353 349 349 374 432 417 398 378 363 350 348 348 348 385 365 533 552 528

GFSWCAN_2pvu_pres_015.txt.gz
Presure
242 247 239 276 258 240 236 226 218 209 213 231 228 220 195 215 201 203 203 205 186 187 198 189 196 190 193 184 192 202 196 207 218 214 206 200 191 191 195 190 187 189 198 199 194 202 191 159 192 191 195 199 207 206
236 242 269 260 246 240 233 218 215 217 214 241 226 217 219 201 205 195 204 205 202 187 199 192 183 182 190 190 208 206 195 195 190 222 217 214 208 202 187 185 192 188 193 190 199 187 199 196 126 192 199 202 203 202
241 242 271 250 241 232 229 223 206 209 244 231 236 217 205 196 214 206 194 194 205 191 197 193 189 189 191 195 193 201 195 188 189 195 197 190 198 195 189 187 183 193 203 199 116 201 198 193 190 200 201 205 214 203
254 254 284 247 240 229 220 222 204 209 244 227 233 233 215 212 206 207 194 193 192 202 189 189 191 188 195 193 196 202 195 192 196 198 194 196 194 189 191 195 190 194 197 202 202 201 194 146 205 201 204 214 192 201
252 294 272 237 236 227 221 218 208 210 224 240 227 224 230 212 210 202 207 206 197 191 202 202 196 189 189 193 190 192 195 199 198 199 196 192 195 192 190 185 175 195 140 165 196 165 197 198 198 207 218 213 203 200
286 268 255 231 238 227 218 217 214 206 210 214 226 225 220 178 220 202 197 204 203 211 195 208 198 200 197 199 205 191 180 187 189 195 187 187 179 187 184 186 152 117 91 193 192 199 201 202 210 229 208 211 200 196
266 262 242 236 230 227 220 216 216 206 207 198 231 220 229 209 225 219 202 199 197 201 211 194 191 194 189 196 197 199 198 197 202 202 204 202 197 186 194 191 204 133 201 210 209 208 214 224 218 207 201 197 185 203
254 241 235 235 228 225 221 216 218 212 199 210 196 219 225 214 213 215 228 219 211 193 199 197 201 206 199 196 199 203 202 201 199 195 196 199 201 161 193 192 200 200 207 219 210 212 223 215 204 197 187 203 200 213
251 238 233 230 215 229 220 218 216 207 211 205 205 216 230 228 217 213 206 224 229 204 207 193 190 190 193 209 201 205 205 205 210 209 213 212 211 207 211 211 211 220 211 219 203 199 195 191 196 203 202 213 209 210
246 247 236 228 232 229 222 221 217 209 207 209 206 204 210 212 224 226 212 214 210 214 214 209 205 207 207 215 218 220 228 235 240 236 234 231 228 224 231 226 206 217 201 203 205 194 199 201 203 209 211 206 212 215
244 245 243 230 231 231 228 217 218 205 213 210 205 211 207 202 206 205 200 201 204 200 202 192 217 200 200 200 214 202 207 207 205 207 211 208 198 197 202 203 201 197 201 202 204 207 205 209 210 210 214 218 213 221
255 237 243 239 222 228 228 222 224 214 219 218 216 211 206 200 204 211 208 204 202 199 200 199 200 204 203 202 205 209 207 200 195 205 210 207 203 205 205 205 205 204 204 203 204 210 211 210 214 217 219 215 226 230
260 242 239 214 238 225 225 230 223 220 219 212 202 203 214 221 217 215 210 201 198 199 200 199 205 211 211 209 208 208 209 208 209 206 205 204 200 197 193 207 209 210 212 212 213 214 218 215 221 224 225 226 233 240
249 254 249 241 232 237 232 225 229 229 223 224 225 221 216 210 205 207 208 214 218 218 212 211 211 212 215 218 220 223 219 216 212 216 217 222 221 222 221 221 215 217 219 222 219 215 223 229 227 233 237 242 268 267
234 237 241 245 248 238 229 242 234 229 223 221 222 222 220 222 222 219 218 216 215 213 205 209 211 209 207 212 217 220 222 225 226 226 227 229 229 232 233 231 230 225 228 234 232 228 226 240 253 273 273 252 243 234
262 254 243 239 242 246 252 246 237 234 233 230 238 239 231 220 221 228 231 231 214 214 218 223 223 223 225 220 228 231 236 231 229 241 242 237 236 240 239 242 244 247 254 261 274 267 268 269 258 262 257 250 255 255
247 251 250 249 245 243 232 253 267 244 247 278 276 263 273 242 234 232 230 231 235 232 233 233 234 235 235 236 234 248 256 259 253 260 257 270 272 264 269 270 264 265 265 264 265 261 242 243 247 258 251 285 291 284
241 240 235 249 245 241 242 252 242 244 240 261 245 253 242 247 272 257 256 280 260 246 255 253 241 249 247 247 249 246 251 252 252 255 273 263 256 255 269 277 295 284 284 285 280 277 255 282 280 273 267 288 305 286
258 251 249 244 252 251 257 261 256 254 274 251 245 257 252 249 267 261 272 254 255 254 264 259 253 268 239 234 248 248 246 233 241 252 249 273 281 235 237 237 238 257 256 264 270 295 291 290 289 269 265 298 317 316
249 257 254 247 247 245 260 259 248 253 252 251 244 262 253 253 255 249 253 262 257 228 238 243 258 255 264 248 231 237 284 288 273 285 298 294 283 284 286 289 288 294 289 286 288 291 282 277 314 328 328 329 330 328
247 254 248 251 259 254 255 249 250 257 255 255 257 257 257 256 256 256 254 256 256 259 263 267 269 276 272 273 294 264 300 275 269 274 277 274 270 267 264 265 270 264 337 329 327 327 328 326 319 319 348 366 384 394
247 249 258 255 248 246 259 247 251 255 249 254 251 258 257 255 257 257 270 269 261 266 267 273 317 263 263 267 287 296 301 334 329 327 333 333 326 326 326 324 323 324 325 331 339 357 368 368 372 388 388 423 406 402
252 259 261 263 263 267 269 270 267 263 260 258 260 265 268 264 310 319 339 336 304 307 337 334 341 335 341 343 340 341 342 341 340 338 336 344 349 348 351 356 359 361 364 368 368 369 369 366 388 406 405 404 396 386
320 296 281 280 277 278 280 280 267 319 314 316 327 322 321 323 319 326 321 317 321 322 332 344 350 364 368 363 358 357 358 358 358 360 359 358 357 354 354 353 355 358 361 356 351 389 388 385 382 383 387 389 390 390
320 326 319 325 327 325 334 335 331 330 326 328 329 331 329 329 327 329 329 338 341 352 364 363 357 357 361 364 363 359 358 354 351 346 343 338 337 340 345 351 351 362 395 389 379 374 370 371 373 374 375 376 379 410
325 331 334 344 350 363 373 364 357 357 355 354 362 367 362 359 360 369 376 369 366 367 366 363 359 355 351 346 340 337 332 334 335 330 330 334 335 332 347 367 388 381 374 373 391 417 413 404 396 390 381 365 358 357
374 399 432 454 450 434 454 443 436 434 440 435 451 464 400 365 363 364 362 357 354 350 348 343 340 338 333 332 335 333 331 329 333 345 355 354 350 370 391 380 372 381 399 385 367 357 353 349 348 348 347 347 350 349
417 412 394 399 413 405 402 406 407 407 410 410 406 402 409 408 393 347 340 334 330 331 330 329 332 333 328 321 335 355 346 347 347 345 349 376 386 372 368 381 382 361 351 352 352 352 351 348 339 336 355 364 365 362
386 383 379 370 369 382 373 366 367 372 374 374 371 375 381 378 370 361 346 329 324 327 325 321 317 324 347 349 346 346 347 347 361 383 376 363 362 373 362 352 351 350 351 352 339 331 354 371 367 363 360 371 420 393
357 349 348 346 349 349 350 351 355 354 357 361 359 356 357 358 355 353 348 344 336 319 327 344 352 350 347 347 354 363 371 374 360 357 364 362 350 344 345 348 350 334 319 350 365 358 354 384 435 417 393 377 360 356
337 340 338 337 342 339 340 344 345 348 350 349 352 353 354 352 354 355 356 358 354 350 348 352 358 363 367 381 367 358 352 356 368 345 338 344 347 348 334 308 350 367 356 347 348 416 420 402 385 373 358 348 345 345
357 356 352 353 358 355 344 338 336 336 338 338 338 339 340 339 345 349 355 362 364 369 380 374 366 359 344 349 364 375 336 338 339 350 343 346 306 299 366 369 364 346 341 404 414 401 384 374 360 348 342 338 336 341
359 357 356 347 343 348 355 346 349 352 350 350 346 346 353 360 361 358 359 355 350 345 346 353 363 364 357 353 352 351 342 346 336 298 319 374 372 340 348 369 344 340 407 400 389 373 360 350 343 338 339 337 339 342

GFSWCAN_2pvu_pres_021.txt.gz
Presure
291 284 274 275 270 265 264 259 251 254 259 251 263 245 246 227 242 235 226 228 207 217 211 209 195 200 200 201 203 215 205 204 204 206 205 202 196 199 201 200 201 202 202 203 203 199 198 197 191 193 194 195 190 193
266 265 266 257 256 261 253 253 257 258 246 267 246 245 230 225 239 222 234 213 215 207 216 205 201 198 205 211 206 199 205 198 199 198 197 209 207 205 205 208 211 210 157 215 104 213 220 219 209 192 189 189 188 182
266 270 250 254 254 251 255 257 250 247 265 240 243 229 217 239 228 215 225 214 206 204 209 204 199 197 199 196 192 188 191 195 197 190 193 192 190 183 196 200 197 195 214 211 211 184 146 210 203 190 185 180 186 181
256 252 236 252 250 252 246 247 248 269 239 241 237 217 217 239 225 220 220 216 206 203 209 199 203 200 193 195 195 196 196 189 191 188 188 195 192 212 196 197 189 117 132 199 194 194 192 185 178 191 196 197 194 193
243 247 247 246 240 248 242 249 257 244 239 225 225 215 241 231 219 225 209 211 196 208 210 201 200 202 200 194 191 194 197 198 194 192 194 193 191 191 195 206 117 198 195 185 186 191 197 194 193 192 193 198 201 203
246 239 242 239 236 265 260 252 240 229 229 226 217 216 239 226 219 221 200 213 207 199 206 207 199 198 199 192 189 188 189 195 198 199 193 189 191 191 138 196 103 198 199 205 206 204 199 201 199 197 199 201 211 227
240 250 249 237 254 247 248 234 235 225 224 229 212 248 230 228 218 213 196 209 207 201 200 206 205 202 195 197 197 193 191 188 187 195 194 198 199 201 192 192 186 193 198 199 194 205 201 200 200 207 220 229 204 200
240 232 242 237 257 243 239 230 228 224 224 216 217 219 238 223 205 215 212 194 211 209 203 202 200 206 206 202 201 201 202 201 202 201 192 197 194 194 194 198 199 198 202 208 203 199 202 208 221 216 211 202 203 201
240 242 236 261 248 242 231 233 228 223 217 220 207 245 194 231 221 217 215 210 202 208 203 199 202 208 211 207 201 193 196 198 195 198 196 194 199 198 201 201 198 195 192 202 206 204 216 229 205 203 203 207 203 206
260 241 261 258 252 238 234 230 230 210 218 218 210 213 223 236 237 226 222 213 218 209 205 205 201 195 204 205 208 210 215 214 211 208 208 205 204 204 207 210 211 212 214 205 217 227 201 199 203 206 210 212 215 217
256 253 257 257 250 235 218 233 229 227 217 216 213 209 230 223 238 239 223 222 220 216 210 205 204 203 201 206 212 214 210 208 210 209 208 205 203 212 216 213 207 215 227 199 199 203 205 202 204 213 218 216 222 227
241 247 257 253 252 242 233 227 235 226 224 222 217 214 222 251 230 242 221 191 205 221 217 222 221 215 191 196 205 201 205 210 207 209 217 217 213 201 214 232 232 209 204 203 204 210 213 215 214 222 228 222 227 235
229 218 242 255 259 248 232 240 235 226 218 216 217 214 207 209 209 199 243 237 220 226 229 226 224 228 223 212 237 208 230 237 211 241 220 228 229 213 207 206 203 200 210 214 213 213 218 225 225 225 227 230 233 238
243 229 243 274 259 251 235 231 236 240 228 221 224 217 217 214 210 208 207 207 209 213 211 203 204 231 225 208 210 216 218 217 204 204 204 202 199 203 205 209 204 213 212 219 223 224 230 233 226 230 243 244 254 243
268 269 265 267 261 252 240 233 234 218 232 240 226 217 206 216 218 216 216 212 213 214 214 212 213 213 212 210 210 211 211 204 203 208 216 215 208 202 208 220 220 229 224 227 236 237 242 246 245 251 259 259 251 242
261 271 252 258 240 251 252 224 233 234 230 236 238 239 230 217 214 212 210 210 212 211 208 207 204 204 208 208 212 216 217 216 203 202 220 229 228 227 225 226 227 237 237 243 244 250 257 260 258 252 247 253 261 260
260 255 253 264 250 251 240 244 244 237 234 237 229 225 230 236 235 231 232 230 229 227 225 225 223 218 210 201 225 227 231 227 224 223 224 231 234 235 226 235 238 238 244 259 257 247 237 250 249 268 317 328 292 258
255 248 254 258 263 248 248 252 250 244 232 226 236 235 235 238 230 235 231 236 236 234 231 228 222 219 217 213 212 221 230 236 240 238 237 242 238 240 246 250 264 261 258 262 242 251 264 251 325 347 314 325 354 346
252 241 252 257 253 259 256 254 249 243 244 244 246 248 248 243 243 244 243 238 235 219 234 233 235 234 233 230 232 237 237 240 241 240 245 254 260 256 263 243 239 239 244 247 248 278 299 337 293 338 357 358 364 361
264 257 253 252 252 250 251 240 238 251 258 260 258 256 254 255 253 249 249 252 252 253 252 253 252 248 246 248 255 250 247 270 269 259 256 261 239 238 246 249 249 249 295 277 327 332 338 380 373 371 369 363 365 365
245 261 265 252 252 256 262 223 227 251 253 244 244 241 231 230 233 235 233 230 231 255 253 251 247 248 247 250 256 236 237 263 268 268 256 236 247 268 275 272 326 338 278 293 332 377 374 369 369 380 358 350 349 351
254 258 260 287 287 266 250 241 253 247 236 244 252 253 261 253 250 248 259 261 271 274 259 235 236 239 259 267 266 257 245 245 264 267 263 266 268 234 281 324 318 335 341 376 379 373 370 362 349 349 346 346 352 364
260 263 263 264 267 273 272 269 274 281 256 264 258 264 263 264 261 260 261 256 256 256 258 259 259 258 259 262 269 272 266 270 269 264 270 273 309 333 339 339 347 374 378 374 363 358 349 353 349 342 338 364 372 391
277 274 273 259 259 265 260 262 260 264 262 262 262 259 257 258 265 264 263 260 261 259 262 265 267 267 267 275 284 292 300 307 315 323 334 338 335 332 342 369 375 370 361 354 347 345 337 332 345 365 370 386 381 374
299 296 297 270 275 255 272 271 269 264 264 253 261 259 255 262 266 268 265 272 271 281 288 294 289 286 308 315 297 295 329 339 304 347 343 344 345 367 367 366 359 351 342 336 334 330 330 361 369 379 380 369 367 346
303 306 303 279 306 312 304 300 292 296 297 296 292 280 295 298 302 304 322 323 325 325 325 327 326 299 318 326 343 352 353 357 358 359 365 373 369 364 358 347 343 336 332 335 331 349 366 380 378 362 369 349 346 348
315 310 306 313 316 317 318 318 318 319 320 321 327 335 339 344 358 410 410 405 423 461 439 436 447 437 417 420 415 406 406 403 395 384 377 370 364 354 348 352 343 347 346 353 367 379 375 357 367 355 333 353 312 312
336 335 334 332 331 331 328 331 336 396 414 415 412 411 418 402 408 420 417 414 409 410 413 412 420 406 403 397 394 387 384 383 377 372 372 372 370 366 362 360 351 359 368 379 368 354 363 362 344 349 305 305 331 361
373 390 394 395 398 395 395 391 395 395 386 387 384 381 382 387 381 380 378 379 380 380 379 376 376 376 376 376 376 376 375 372 370 367 366 365 363 360 362 365 376 375 357 353 370 356 368 401 356 301 303 372 362 378
380 373 377 370 371 373 370 368 369 370 371 366 368 368 364 365 363 364 363 363 362 359 359 359 358 358 357 357 357 356 357 358 359 362 364 371 379 380 371 358 361 369 363 358 347 375 397 384 306 307 380 374 378 358
368 369 371 372 375 374 377 383 382 380 368 358 356 359 365 366 368 371 372 365 359 357 359 362 366 368 369 371 371 369 366 368 364 360 356 355 351 367 368 359 365 379 379 390 394 391 383 386 379 377 362 357 346 365
365 361 360 362 366 367 369 367 365 367 370 367 367 367 365 364 367 345 354 356 358 357 358 357 357 356 354 356 353 351 350 355 364 366 365 355 354 382 384 387 403 407 401 394 388 380 368 354 350 351 361 376 406 407
367 363 359 353 345 346 348 348 349 348 349 347 346 347 348 348 345 345 346 348 356 355 359 361 360 363 359 356 362 364 389 400 415 418 419 418 419 413 411 402 388 383 375 358 349 358 378 396 422 417 419 409 401 386

GFSWCAN_2pvu_pres_024.txt.gz
Presure
310 305 296 300 294 292 286 276 288 262 295 295 293 214 279 207 236 248 211 249 237 234 224 231 222 199 209 208 207 207 199 205 202 196 197 197 196 195 199 199 201 200 202 202 202 201 204 203 201 198 201 132 205 207
292 285 285 293 243 306 216 293 290 291 291 282 279 270 217 251 236 235 253 246 236 230 227 223 209 208 210 204 209 207 200 201 197 195 197 199 197 196 200 201 202 198 205 203 205 206 214 97 87 215 220 211 199 192
275 289 271 267 256 238 273 273 273 273 270 267 257 269 205 220 240 255 257 237 229 231 216 225 202 209 212 207 207 201 201 199 200 203 200 197 200 208 204 199 209 162 130 190 202 197 198 198 204 202 199 189 193 198
293 280 282 283 285 283 279 274 272 270 270 272 255 246 266 253 269 251 237 229 235 226 226 210 204 211 211 209 199 200 203 203 209 209 203 207 198 197 191 190 144 193 198 204 192 204 206 199 194 201 202 202 194 184
258 255 240 265 263 250 264 262 258 256 250 261 253 255 253 262 244 238 238 234 228 232 219 211 210 209 210 198 203 197 209 216 198 191 188 189 189 188 192 190 191 181 185 190 193 195 200 201 195 192 194 191 197 197
243 243 251 250 243 248 245 249 242 251 258 246 257 263 251 239 232 235 239 228 233 226 208 216 209 205 211 199 201 201 200 198 195 194 197 198 196 197 197 192 192 193 194 202 199 206 211 202 200 198 193 204 193 194
251 254 249 243 246 246 255 247 255 250 248 258 251 241 229 219 238 237 224 225 228 208 202 215 207 201 207 208 196 201 202 195 194 180 187 188 187 190 193 182 181 198 202 205 196 195 200 207 205 199 195 195 210 203
248 253 252 249 243 249 250 252 239 254 260 241 236 224 218 228 239 229 222 228 221 212 215 204 204 204 203 205 197 195 198 198 198 196 196 193 196 199 198 200 199 190 204 195 202 206 154 208 206 212 211 205 211 236
241 239 242 252 238 252 235 251 261 248 233 234 218 220 214 246 230 237 223 217 214 211 210 198 198 201 200 207 204 205 200 200 198 197 199 200 199 198 195 196 200 201 206 212 210 209 206 201 216 203 207 234 211 207
241 246 244 246 230 256 256 258 246 238 222 230 216 216 205 253 233 236 224 217 216 202 191 203 205 207 201 195 189 208 207 201 200 201 202 199 204 201 203 209 212 208 201 211 196 196 218 210 206 233 232 211 201 214
245 249 247 232 247 258 250 249 235 229 229 220 221 215 210 246 206 220 225 223 217 208 198 198 204 209 206 204 202 200 202 207 205 202 201 209 207 207 199 192 216 215 193 204 218 213 207 235 223 209 211 214 215 211
242 251 231 236 253 245 250 240 238 225 228 222 218 218 212 227 244 214 218 220 198 212 217 211 208 205 206 208 207 207 209 209 193 206 202 191 194 203 208 210 196 204 208 219 234 229 212 207 213 209 214 211 225 232
246 249 238 233 258 251 248 243 232 231 225 226 219 217 210 202 221 223 192 210 220 205 199 210 218 219 220 220 219 216 210 214 216 216 215 212 206 201 206 227 239 229 222 212 210 204 207 203 215 215 226 232 227 234
233 239 250 244 259 263 255 247 237 234 228 227 215 222 220 216 205 208 224 227 225 232 225 225 223 216 200 211 213 215 207 212 198 217 221 224 230 232 223 210 211 210 209 203 209 210 216 213 218 228 230 233 242 247
233 223 235 249 241 254 256 243 241 230 218 227 231 225 218 214 212 210 211 236 257 241 223 220 225 229 228 225 226 229 228 223 217 239 234 228 213 213 210 208 203 203 212 216 219 216 231 228 239 238 246 247 251 259
236 228 228 229 217 237 248 251 246 238 234 236 233 226 224 223 220 224 224 214 211 210 212 213 220 219 219 207 207 209 215 215 212 215 214 208 206 206 201 211 215 217 229 232 233 233 242 245 245 249 253 270 260 253
242 245 237 229 235 228 240 242 245 242 244 237 232 236 232 228 222 222 222 215 221 220 219 220 218 219 222 221 221 220 216 215 218 216 218 219 221 227 232 235 235 227 236 239 243 250 250 261 272 281 256 261 249 303
230 228 240 249 260 249 248 257 253 246 243 242 233 237 238 237 233 233 230 225 221 218 213 209 210 208 211 215 215 216 219 222 231 238 240 238 237 233 227 235 243 244 250 264 269 253 249 252 257 253 248 253 324 261
270 253 267 266 254 257 255 257 248 245 249 250 242 241 238 236 241 243 240 237 239 240 240 240 239 239 239 240 241 241 237 235 232 230 229 233 241 241 252 260 259 251 249 260 264 249 266 262 250 280 312 333 344 362
252 262 267 253 259 257 259 255 255 252 249 244 243 245 250 250 233 237 237 236 235 237 243 244 234 225 226 221 239 244 248 247 245 238 247 260 254 245 253 261 257 260 249 254 269 253 275 304 308 333 348 343 385 384
229 258 243 280 258 258 266 254 257 260 255 253 255 255 251 245 246 248 253 253 248 247 249 253 255 250 242 242 263 264 261 258 259 256 241 258 265 259 257 258 247 251 256 284 279 293 292 301 339 346 349 376 379 365
260 245 246 284 270 283 274 264 268 261 266 266 266 266 262 256 254 255 260 266 270 273 271 267 267 266 259 247 245 244 250 259 261 262 261 260 261 262 252 265 285 298 297 311 320 316 331 356 358 354 373 374 355 345
264 273 266 258 266 283 273 278 279 278 266 266 275 271 268 269 263 264 263 248 251 267 245 248 250 257 258 248 244 254 263 270 274 264 263 270 280 284 299 320 316 313 311 313 320 345 356 361 371 375 371 353 344 348
263 286 287 283 271 274 270 233 260 260 263 254 260 273 281 279 279 274 249 267 275 278 243 267 273 269 268 268 265 266 267 270 274 280 287 289 314 314 316 324 325 325 332 347 358 367 376 380 378 367 356 353 365 364
301 292 294 264 265 266 278 277 276 276 277 282 282 280 264 271 277 275 272 267 264 274 283 276 270 270 271 273 274 279 288 296 314 321 311 318 324 327 334 344 350 360 369 400 396 391 384 376 366 374 374 363 377 379
299 298 297 294 294 302 280 283 284 278 279 280 283 283 285 282 279 281 278 274 272 270 276 280 281 286 300 320 325 320 318 317 323 332 339 344 367 405 401 401 401 398 396 392 384 379 379 381 374 367 372 379 367 362
324 317 322 307 308 307 307 307 307 304 302 304 304 305 309 311 313 316 315 315 317 320 328 333 303 331 349 358 399 424 416 409 397 399 399 401 397 395 393 389 388 386 385 382 378 374 368 365 374 377 363 362 366 360
338 380 321 316 347 354 361 363 341 344 342 340 338 336 335 343 345 344 343 348 414 409 421 417 416 411 407 402 398 398 396 400 396 392 389 384 382 381 377 374 372 370 367 366 370 375 384 367 354 362 360 370 377 394
378 377 376 329 326 324 330 347 397 402 398 389 400 401 400 404 397 395 395 395 396 390 388 385 382 379 378 377 377 376 373 371 370 368 366 363 357 360 367 373 376 375 373 363 355 352 369 371 363 378 381 398 396 388
303 326 380 382 382 383 383 382 383 385 387 391 389 388 387 386 385 382 376 370 368 366 370 375 376 377 377 373 371 370 372 373 375 376 373 367 363 362 359 356 355 361 374 377 368 370 386 399 413 410 397 385 370 353
372 370 370 372 375 380 385 384 381 381 380 379 382 383 383 385 388 391 389 390 387 382 378 374 368 364 362 360 358 357 356 356 355 356 360 359 361 368 374 390 404 412 414 418 424 418 415 402 385 378 359 346 386 434
375 372 372 368 370 382 381 373 369 364 361 360 362 365 366 365 363 361 359 358 358 356 355 350 347 348 361 362 363 366 365 361 364 377 385 392 397 395 391 389 385 392 389 377 395 396 363 374 361 339 368 448 358 348
369 369 370 363 359 356 352 351 355 374 374 368 365 361 360 359 354 345 346 349 354 358 356 359 365 364 359 362 371 379 379 375 371 369 367 367 366 366 364 366 367 365 361 366 368 352 355 355 335 397 451 351 347 354

GFSWCAN_2pvu_pres_030.txt.gz
Presure
422 414 408 402 402 384 368 385 402 292 500 522 407 372 347 331 287 150 280 279 266 256 230 196 246 230 266 198 208 236 239 226 208 212 212 209 204 213 204 203 202 198 202 203 200 195 196 199 197 197 198 198 200 200
477 548 539 522 511 517 511 188 373 464 144 171 164 361 317 282 261 266 244 254 181 262 291 221 161 271 177 233 219 218 237 226 212 211 208 218 207 211 209 203 203 198 196 197 198 194 200 198 197 193 195 199 200 167
382 416 459 492 494 502 525 531 193 222 168 367 368 305 318 301 268 255 240 192 150 247 239 253 263 163 237 225 208 230 231 228 210 189 208 203 216 205 215 206 199 197 196 199 197 88 197 197 198 198 194 198 195 188
349 371 435 383 446 432 456 417 409 371 363 340 298 293 305 176 272 260 269 193 176 242 199 252 263 236 235 210 224 228 230 228 219 193 206 206 215 206 209 211 205 201 199 197 195 201 201 204 197 198 200 191 192 192
304 317 292 324 322 319 336 350 315 347 305 295 281 285 291 288 266 270 266 236 200 168 203 203 239 231 227 219 187 221 234 227 221 216 207 207 206 209 207 212 207 203 201 201 126 200 204 205 197 192 190 195 195 181
278 278 292 292 291 290 296 293 261 280 279 277 275 270 269 275 286 269 250 248 257 288 225 249 242 233 229 224 227 218 236 228 224 216 205 207 208 209 204 207 209 204 204 204 205 207 206 199 202 198 190 187 191 200
261 265 271 272 276 283 261 265 275 273 273 277 266 271 288 264 253 258 249 268 267 173 250 241 236 229 226 225 226 230 232 229 218 221 209 205 209 209 203 206 210 203 205 203 204 207 206 206 188 195 193 200 201 189
264 263 263 264 270 268 262 270 275 275 273 268 258 262 267 263 250 223 221 179 258 260 244 241 236 232 232 226 223 232 223 231 217 224 214 201 207 207 203 197 203 204 204 205 206 210 203 206 194 197 201 197 205 208
258 265 271 281 255 265 281 252 253 280 260 285 275 277 261 255 251 256 263 265 264 256 247 235 205 210 215 220 227 235 224 232 222 226 218 202 207 204 197 202 200 198 200 204 208 205 193 195 201 201 192 182 201 194
255 256 262 263 258 267 265 259 277 262 277 287 277 268 263 251 252 253 250 257 263 251 221 224 233 225 208 229 235 236 231 232 227 227 215 199 207 207 207 208 205 200 198 199 198 197 203 201 200 207 208 200 188 205
249 252 258 258 253 260 258 260 262 270 267 258 248 266 259 252 249 268 212 243 258 230 243 217 233 237 209 223 242 237 231 233 228 224 215 204 205 203 203 205 207 208 204 201 203 201 193 209 210 197 189 204 209 208
252 248 243 252 248 247 247 247 263 255 257 256 253 254 249 251 252 247 244 243 241 238 230 211 227 238 225 238 235 236 228 228 226 220 206 204 197 201 205 207 204 203 203 205 210 212 208 216 207 208 213 213 215 214
247 253 257 255 248 244 251 248 243 248 246 249 249 253 255 255 247 251 246 240 239 242 241 223 228 246 240 236 233 229 230 231 229 184 181 203 201 200 201 203 206 208 212 204 216 209 204 204 209 215 215 207 222 205
229 242 245 243 259 250 258 260 253 247 252 251 245 245 244 249 242 233 231 233 248 246 247 245 242 235 234 229 232 234 232 229 225 211 200 198 205 210 211 211 212 219 215 207 195 208 216 215 210 219 208 204 238 234
241 235 238 234 245 245 237 242 237 244 249 247 247 248 244 240 246 241 235 228 226 228 224 232 227 226 233 234 223 225 231 228 222 214 211 213 219 219 215 206 203 205 210 212 211 211 219 221 220 232 240 223 209 217
249 242 244 243 229 235 243 248 242 243 236 239 232 235 246 241 229 222 223 223 221 226 222 236 234 234 234 230 222 219 223 222 218 215 225 224 210 209 210 208 215 218 224 225 224 228 230 222 217 214 209 226 229 235
241 237 232 229 247 230 234 242 249 244 244 235 231 228 231 232 226 219 219 221 224 223 218 211 247 251 245 233 231 227 222 224 223 220 218 222 226 228 229 230 228 229 229 229 216 215 199 206 226 227 232 232 240 250
242 221 229 242 241 239 239 244 244 246 250 244 240 233 230 229 232 224 219 219 217 218 219 217 216 214 215 230 236 238 237 237 238 236 222 214 214 240 214 215 216 215 211 202 202 229 228 232 237 244 250 252 248 255
233 240 242 234 237 230 235 237 240 246 254 255 254 245 237 236 235 228 227 219 223 223 224 224 226 225 225 226 226 224 220 219 216 215 216 216 216 214 210 214 228 228 234 232 235 241 247 252 248 241 257 254 255 266
233 249 230 232 239 242 231 241 237 238 235 235 243 250 258 259 251 237 237 238 237 234 232 231 231 230 230 229 230 230 228 230 229 233 235 233 229 232 234 238 242 244 247 253 253 243 249 256 257 254 263 256 249 262
236 235 239 253 261 216 254 246 237 234 224 224 235 242 243 246 245 253 258 262 263 263 256 239 236 238 236 239 241 241 241 243 245 245 237 223 253 253 250 251 251 257 256 257 257 260 253 260 266 253 252 267 264 276
249 255 250 250 229 231 249 259 261 272 272 256 250 253 248 249 253 250 247 246 248 251 255 257 257 257 257 256 252 254 253 252 253 255 255 261 258 256 257 262 261 257 261 265 268 274 280 281 271 278 282 300 297 280
244 238 246 247 248 255 251 248 256 279 281 274 271 273 273 266 250 245 248 252 257 265 268 267 266 267 268 268 268 267 267 268 267 260 260 263 262 258 256 262 266 271 277 278 285 283 275 280 277 269 287 312 317 374
246 225 245 236 238 240 251 240 239 236 236 232 231 230 255 262 269 272 267 267 268 266 262 261 263 264 264 265 267 268 268 269 269 269 269 264 268 271 277 281 282 258 265 266 271 273 268 308 310 312 323 417 404 395
270 267 274 298 277 272 273 273 266 269 263 266 257 260 256 249 257 259 244 242 244 255 261 263 267 273 277 280 281 278 279 279 282 284 285 287 288 249 265 270 272 276 288 309 313 313 317 322 399 395 395 390 385 387
284 286 299 309 305 286 261 315 282 274 276 269 271 270 273 265 268 264 263 268 273 280 283 281 262 261 265 263 270 273 274 278 277 263 274 275 281 290 297 302 309 309 312 317 340 393 394 392 389 389 391 389 382 375
318 323 322 324 300 303 322 328 332 334 336 295 272 271 274 275 282 282 287 286 288 296 302 301 294 296 290 297 310 318 314 312 311 313 311 313 316 322 329 356 391 388 392 391 392 395 394 390 384 375 368 373 383 382
326 309 314 321 323 337 334 332 337 337 344 348 349 347 349 357 355 354 352 348 343 346 345 341 338 335 332 331 331 342 386 368 368 367 376 395 391 388 387 391 397 398 395 389 383 373 370 377 379 376 380 385 383 381
318 329 313 314 338 395 324 318 316 403 405 402 343 325 324 359 404 404 356 415 416 416 419 419 420 419 417 416 415 414 413 409 407 406 403 398 395 388 384 381 372 371 369 371 372 370 373 377 378 371 367 440 405 388
322 325 372 376 373 370 362 368 382 386 392 393 396 398 399 401 403 406 408 408 402 398 397 397 395 393 389 388 386 385 383 382 379 376 372 370 369 369 369 371 369 367 378 371 365 365 409 450 424 403 383 371 363 357
337 340 343 395 386 370 340 393 396 392 397 398 397 393 392 385 386 384 382 380 376 375 375 375 378 378 377 375 373 373 368 372 371 368 372 366 370 372 370 360 383 379 364 356 352 350 388 392 383 373 363 356 348 346
375 377 382 375 387 392 390 378 379 374 376 373 372 371 376 391 395 386 376 373 369 370 377 379 381 380 376 372 369 364 364 364 363 370 370 364 364 383 390 389 375 364 351 346 348 443 415 391 377 368 362 360 357 360
373 372 394 395 380 360 368 364 373 373 374 376 378 375 363 353 346 377 380 375 367 362 359 359 358 357 368 375 373 367 360 361 369 377 380 382 381 378 375 377 375 353 361 387 391 387 389 388 386 385 380 382 381 446

GFSWCAN_2pvu_pres_033.txt.gz
Presure
353 348 349 354 365 267 389 280 385 399 387 440 341 417 311 320 304 310 293 264 281 266 245 242 217 237 178 183 204 186 216 212 210 196 238 230 227 215 210 202 213 212 197 207 201 203 199 202 203 157 193 198 201 199
392 384 384 157 418 410 169 364 163 164 142 254 503 191 377 157 240 302 187 297 281 270 264 251 240 172 246 247 255 224 230 240 207 232 217 235 229 220 210 207 208 208 205 198 202 203 201 195 197 198 199 200 205 199
433 428 427 413 400 194 368 371 376 165 454 293 490 511 164 355 310 279 270 167 142 257 269 158 170 252 253 275 248 176 212 225 237 219 205 234 230 222 207 205 214 204 209 206 199 205 201 181 195 195 195 199 201 200
578 462 427 420 410 363 366 258 146 391 467 481 514 256 357 312 288 250 260 274 151 259 246 206 255 223 274 262 256 239 245 214 233 220 224 237 225 227 212 207 199 214 205 205 212 209 202 198 197 199 199 199 202 201
393 467 514 530 462 352 377 439 405 463 507 513 456 352 338 286 259 257 261 255 244 212 239 231 230 234 279 249 172 250 235 231 232 227 227 231 228 226 218 214 204 201 213 206 204 211 208 201 201 201 200 199 198 202
342 356 356 399 516 548 522 511 514 535 600 400 349 320 301 285 272 264 245 210 237 224 227 239 203 221 254 193 255 228 209 234 235 220 213 223 225 222 223 217 204 201 205 210 207 207 208 201 202 206 206 202 201 201
315 314 355 355 415 421 462 510 514 513 362 305 169 289 276 252 251 257 232 221 242 222 177 238 253 210 231 248 262 241 193 224 229 181 215 228 226 225 224 218 200 207 206 204 210 208 206 209 208 208 203 203 205 210
296 307 312 313 309 315 307 275 315 309 303 305 289 280 272 238 235 231 237 219 244 234 218 195 172 221 220 251 248 238 222 224 229 218 205 216 231 227 225 218 216 206 203 206 211 212 202 200 201 201 201 199 196 192
267 287 259 286 291 290 279 265 296 294 296 287 282 260 260 220 253 234 226 222 232 224 221 203 194 246 182 269 238 234 228 234 226 223 219 223 223 228 225 215 219 216 210 200 206 211 204 203 203 192 193 203 203 202
268 280 272 277 261 271 277 260 294 271 282 275 265 264 252 192 206 233 261 222 181 174 211 174 172 258 249 264 232 240 230 228 225 228 228 218 225 225 227 219 213 221 218 206 203 208 210 209 211 210 207 204 202 192
261 275 277 254 258 274 270 267 275 285 264 259 247 262 257 233 245 276 285 250 240 240 241 243 245 268 234 254 242 237 217 224 220 226 227 227 225 233 230 228 216 218 220 213 202 202 207 204 201 203 202 197 210 210
261 263 262 265 269 280 268 253 262 273 267 275 261 254 249 253 262 212 276 260 243 232 255 245 274 256 245 242 240 232 230 228 212 235 232 227 219 224 228 233 228 224 224 223 204 203 202 201 200 208 209 209 204 215
251 256 254 255 256 258 262 270 277 287 283 244 282 271 247 280 275 240 267 251 240 281 252 247 258 251 238 243 240 236 233 238 232 214 212 213 233 232 231 229 230 229 226 219 201 208 214 214 210 205 216 221 207 214
247 251 241 253 252 246 249 252 253 260 261 264 278 280 258 258 253 254 240 254 244 242 253 229 265 265 197 242 242 218 218 226 231 230 218 225 233 230 229 228 231 231 226 220 208 210 210 211 223 224 213 214 213 219
237 246 245 239 245 242 236 246 249 249 247 252 253 253 252 247 234 233 239 240 248 248 238 239 257 254 246 235 236 224 223 235 235 231 241 239 231 229 229 231 231 228 225 222 220 219 218 217 218 220 223 225 222 227
234 238 243 237 234 243 242 245 246 244 246 245 243 244 245 246 248 250 248 247 246 249 250 240 233 236 245 246 248 247 241 245 246 238 225 224 230 230 226 227 230 228 226 220 216 221 226 227 224 222 226 230 211 216
249 245 239 235 237 231 234 239 238 235 239 248 245 243 241 239 238 240 245 245 248 246 237 246 249 242 240 238 234 231 230 233 231 232 233 233 231 221 219 222 222 222 226 227 226 224 218 224 225 211 239 228 225 215
243 239 234 241 249 231 237 245 244 241 240 239 239 242 244 244 239 235 240 237 244 244 234 230 232 230 231 229 229 237 217 237 237 234 230 229 230 233 234 233 232 231 227 224 220 206 220 230 227 222 216 238 240 242
238 236 240 239 232 241 244 233 237 239 245 241 237 240 237 237 236 234 237 239 235 234 229 219 224 221 224 227 228 227 226 224 223 228 234 236 232 231 233 229 234 235 232 229 227 225 226 234 238 243 244 247 254 267
235 230 232 237 232 241 240 239 239 236 231 240 251 245 245 242 238 237 235 236 241 237 231 229 226 222 223 223 222 223 226 229 228 226 227 227 227 227 227 228 230 233 234 236 240 243 245 247 250 258 263 265 267 260
240 238 243 236 233 227 241 252 232 240 236 238 240 243 245 254 253 246 243 241 236 233 233 234 234 235 236 236 235 236 236 235 236 238 239 239 238 237 238 241 244 245 246 249 258 263 264 264 270 269 269 261 254 271
236 233 235 233 237 244 248 241 239 240 250 238 233 236 246 244 244 242 245 247 251 256 257 258 261 260 253 253 255 257 264 265 268 267 267 266 264 266 269 270 269 269 269 270 271 271 255 268 266 266 268 266 269 279
259 253 259 241 246 245 248 235 238 269 256 256 263 258 265 267 244 240 237 235 238 243 247 248 245 246 242 245 244 244 245 248 251 254 262 261 260 260 262 261 262 263 265 267 270 271 273 276 281 287 293 296 298 288
240 258 262 253 248 257 259 247 262 249 256 254 252 252 255 259 259 263 275 285 283 280 260 263 268 272 269 264 259 261 263 266 268 268 268 270 271 273 273 273 275 268 269 289 287 287 278 282 284 284 284 290 297 384
225 269 246 294 228 250 265 253 249 233 240 244 245 240 244 246 255 253 246 246 242 245 253 253 253 250 248 252 255 259 262 265 259 257 256 258 261 262 268 283 283 267 272 288 287 283 295 309 330 330 324 397 399 404
272 296 304 278 307 301 271 285 268 259 257 262 265 271 268 268 269 270 275 271 268 263 265 270 271 266 269 272 271 270 269 257 267 268 269 274 278 285 291 297 300 311 317 323 337 339 347 388 400 402 403 404 396 386
320 314 298 282 286 292 336 336 320 313 338 343 333 307 285 297 336 305 290 272 280 288 279 280 277 281 272 271 277 284 281 285 286 288 292 303 331 333 339 349 374 371 380 402 407 408 405 400 394 389 381 375 373 379
321 321 309 305 306 314 312 322 325 338 351 340 335 341 348 361 362 364 363 358 366 355 353 354 357 363 359 355 353 361 356 354 356 353 418 424 419 417 416 413 411 405 399 394 389 385 381 378 372 374 377 373 372 389
308 327 329 330 305 303 301 303 313 417 404 410 391 376 383 407 412 337 333 374 422 420 419 423 359 335 334 336 416 413 412 410 407 406 403 398 390 387 386 384 381 377 373 373 374 380 373 369 372 371 368 388 394 376
317 309 341 340 330 346 369 408 394 389 398 406 407 405 405 404 408 412 412 402 405 405 404 403 405 405 401 399 396 395 391 389 386 385 381 382 380 377 377 379 377 375 376 373 370 371 370 370 379 389 390 386 373 378
327 319 328 338 364 393 388 400 411 405 396 389 386 384 384 386 387 383 383 385 385 392 393 393 392 391 391 390 387 384 380 380 378 376 375 373 371 372 377 379 376 370 369 371 378 383 382 376 372 369 371 374 370 366
326 332 350 378 371 395 400 391 383 376 371 372 374 379 381 379 381 381 380 377 373 367 362 361 383 384 378 373 372 370 370 368 372 379 379 375 369 370 373 380 382 376 372 370 383 396 409 443 457 459 457 457 455 452
342 371 380 394 388 381 376 369 374 373 368 362 373 426 430 374 363 355 369 382 382 378 370 365 364 366 371 374 376 377 376 373 374 375 374 374 375 385 402 422 461 472 472 471 467 464 461 458 457 455 453 451 450 447

GFSWCAN_2pvu_pres_036.txt.gz
Presure
348 345 342 341 336 349 345 347 352 354 385 415 396 444 399 371 320 327 326 284 254 243 244 243 248 237 228 225 229 219 217 209 223 191 216 215 229 240 223 247 183 216 211 212 204 212 209 201 199 173 202 200 203 205
349 340 347 361 350 348 361 345 356 397 422 428 397 390 417 362 349 313 302 311 271 236 239 238 245 232 235 234 229 224 219 200 199 205 215 227 225 241 233 246 236 215 207 212 204 213 209 206 197 164 189 204 201 196
363 353 349 349 345 348 356 364 367 400 406 431 390 485 401 348 349 318 294 304 292 183 236 233 230 152 214 227 221 217 192 205 143 214 219 228 237 246 240 235 243 223 213 213 205 210 198 203 106 201 200 199 200 202
404 384 373 274 301 364 127 387 311 288 436 400 386 314 246 355 330 286 241 302 297 287 273 249 244 225 227 209 208 201 203 208 220 238 238 245 239 240 222 232 235 228 217 213 207 204 208 167 203 205 204 204 204 202
430 430 242 413 379 219 198 373 384 438 432 242 226 273 365 186 270 290 292 290 293 286 289 275 262 247 249 244 236 235 238 236 251 168 253 249 242 232 225 222 227 228 225 217 210 129 201 204 209 208 202 200 202 206
527 435 416 166 383 379 376 322 383 424 376 164 485 407 364 340 320 279 265 292 276 151 265 262 262 254 268 212 220 232 223 233 243 232 234 252 235 230 227 230 218 230 227 220 212 215 204 203 202 202 208 208 203 202
450 531 511 436 160 309 194 377 394 379 143 164 409 287 208 295 277 275 287 279 264 263 258 141 276 274 184 174 224 197 202 212 186 226 232 247 234 228 232 226 221 216 228 223 222 210 211 212 207 208 204 203 209 207
379 469 487 537 480 447 403 408 435 478 505 432 361 299 261 272 275 264 221 247 241 188 251 187 240 231 225 227 229 232 255 231 233 220 209 237 236 227 221 180 221 221 227 228 228 225 220 214 208 206 202 203 201 207
296 363 502 501 535 546 542 545 546 539 323 303 289 276 265 253 258 246 249 243 239 233 240 243 218 219 226 177 220 227 260 228 200 192 195 220 242 215 228 197 209 218 217 226 232 229 225 224 220 218 217 213 204 206
289 322 232 418 526 534 590 354 321 314 305 241 268 259 247 243 247 250 223 232 225 241 245 216 244 185 241 233 213 217 216 237 224 188 230 225 228 230 223 222 203 215 213 224 231 232 232 231 225 217 218 224 224 218
289 279 307 308 310 310 307 302 296 246 249 259 257 246 238 238 252 239 225 219 209 239 220 197 242 242 251 224 208 231 199 213 208 261 240 228 237 231 229 225 219 221 225 225 221 229 234 232 233 232 226 224 225 225
289 242 285 290 293 261 284 285 280 268 252 255 243 254 234 243 236 247 251 245 242 230 233 229 203 221 246 250 254 218 215 233 227 256 252 242 227 235 233 229 231 233 231 234 230 226 224 227 232 233 232 228 225 223
269 252 300 282 259 273 265 258 264 257 252 263 226 240 246 221 229 228 239 241 258 254 214 260 225 258 244 225 205 211 218 234 244 270 256 245 236 229 227 210 213 220 220 221 222 219 226 244 241 230 224 224 227 228
272 247 243 234 262 242 236 260 267 245 245 253 251 270 248 230 265 215 279 235 265 228 246 262 236 226 234 233 224 225 233 274 264 264 256 241 233 232 231 227 227 226 227 234 226 225 235 239 233 225 226 230 231 230
241 250 270 275 237 250 253 256 235 236 244 261 248 242 256 256 244 239 229 245 213 246 244 255 229 231 235 242 247 262 244 276 250 244 251 250 240 213 220 223 223 223 228 237 234 242 241 230 232 234 230 229 230 231
243 242 242 243 256 276 266 248 239 279 248 236 261 225 243 229 229 225 237 236 237 264 262 262 278 226 230 237 258 255 254 249 258 251 235 223 213 234 221 223 225 233 235 247 246 230 228 232 232 230 227 225 228 233
242 253 254 250 242 241 241 253 261 262 247 246 245 249 248 242 237 238 239 245 248 237 245 252 248 244 237 242 219 223 246 257 254 256 259 247 230 233 236 237 238 250 248 229 234 237 237 239 238 238 238 234 228 235
243 240 238 237 243 249 250 245 240 239 241 243 248 250 253 271 273 272 267 264 261 258 245 242 242 245 251 253 251 250 248 228 229 239 246 251 250 245 240 236 229 230 236 239 239 241 242 245 246 248 242 237 236 235
238 241 238 236 232 237 238 242 244 240 244 244 247 247 246 245 245 244 244 247 246 243 242 244 245 243 245 248 248 241 247 253 248 243 238 238 238 236 228 229 235 242 238 237 226 228 231 233 234 234 236 237 237 242
234 242 243 235 230 236 239 238 231 232 234 236 240 241 239 242 247 250 248 247 248 247 245 244 248 250 250 252 254 251 245 241 238 233 230 229 227 230 232 229 227 226 228 232 235 236 237 240 244 246 247 251 257 264
244 231 237 244 238 235 223 219 222 235 231 237 237 246 246 246 242 235 236 238 238 238 239 239 237 236 237 238 241 243 241 238 236 234 232 231 232 234 236 237 240 243 243 245 249 254 259 266 266 266 268 270 273 277
236 241 222 226 225 232 235 237 240 238 242 243 244 238 231 232 236 242 243 244 251 251 249 246 246 246 245 245 244 243 244 244 247 246 246 246 245 247 250 253 260 262 265 266 256 249 253 263 273 278 278 276 272 271
245 243 247 251 243 246 239 242 244 244 231 235 240 243 246 246 249 254 256 247 244 247 245 249 254 255 258 260 260 261 261 262 261 262 262 261 258 255 253 253 256 261 266 272 277 279 280 275 277 277 278 276 279 282
254 255 257 257 261 261 261 264 262 255 253 255 259 253 260 260 245 243 249 260 274 263 248 259 267 268 268 262 255 251 250 255 259 261 264 263 263 269 275 280 274 264 266 264 270 273 258 266 266 269 280 288 290 295
266 256 255 223 249 226 214 254 253 257 238 241 257 266 269 272 268 273 268 273 272 264 260 258 248 249 251 250 250 249 250 255 238 243 252 254 258 265 271 274 275 275 275 276 278 274 277 285 291 292 292 307 317 406
267 263 220 274 268 255 262 273 260 255 257 265 270 274 276 277 277 278 270 273 270 268 271 271 264 262 264 267 272 276 278 273 279 280 281 280 284 285 270 279 276 279 282 284 289 295 305 323 344 370 412 413 409 401
333 314 318 315 310 328 325 302 299 332 316 313 305 313 320 318 305 324 321 315 296 306 297 287 286 286 285 287 290 297 292 285 286 295 296 292 287 290 292 296 298 300 302 337 415 416 412 409 402 397 391 387 381 377
327 328 321 322 318 321 324 326 326 326 328 334 342 344 347 347 349 349 344 341 342 372 367 366 365 363 364 363 363 363 361 363 358 355 381 413 358 362 354 351 342 340 394 400 397 394 392 386 383 380 375 378 379 380
315 318 321 327 319 324 325 335 345 345 319 322 398 412 412 417 412 408 419 420 418 398 396 417 424 426 422 415 413 346 341 412 414 413 412 409 404 403 399 396 390 389 388 385 381 376 377 377 376 379 382 384 380 378
306 303 313 313 321 334 329 332 345 385 401 411 411 410 410 408 406 403 402 401 402 404 404 402 401 400 402 402 401 403 403 404 402 396 396 396 395 390 387 381 379 378 379 378 379 383 388 387 383 380 379 381 384 389
308 322 327 326 321 333 339 358 397 415 405 395 386 383 388 387 388 385 382 383 384 389 391 393 394 392 390 391 388 379 371 375 380 379 380 379 379 382 384 386 388 387 386 385 389 396 404 418 444 456 470 471 471 469
312 330 325 330 337 361 383 405 399 390 375 425 433 428 427 409 372 375 427 430 423 375 361 354 376 385 385 382 379 371 371 372 380 383 382 381 385 405 433 475 488 494 497 498 501 503 504 504 502 501 498 495 492 489
326 332 333 360 376 392 392 381 379 383 429 431 434 428 415 373 409 405 397 387 373 369 356 356 371 379 383 383 380 377 380 405 463 498 509 519 527 525 525 526 526 527 528 528 527 520 518 513 507 499 495 490 486 482

GFSWCAN_2pvu_pres_039.txt.gz
Presure
345 343 337 331 324 320 319 320 321 322 326 322 323 343 364 391 381 518 301 335 277 258 251 241 233 227 193 210 207 204 208 211 213 211 200 222 204 213 217 222 225 204 225 245 256 177 222 214 212 208 211 218 210 151
336 332 323 320 321 318 320 325 328 315 323 332 346 355 378 393 286 175 398 303 358 257 247 248 244 235 222 218 224 223 221 185 212 208 214 214 216 208 211 212 214 205 234 227 247 233 225 215 217 208 211 206 129 210
338 339 332 329 326 327 329 328 334 341 353 346 351 364 328 167 495 497 391 281 326 260 251 243 243 243 241 233 227 217 219 221 216 205 211 208 208 214 222 222 199 215 234 240 247 231 228 221 213 210 203 214 204 196
348 344 338 337 334 333 333 346 345 347 347 359 359 393 415 423 505 490 349 282 303 284 251 251 239 239 241 246 233 222 211 211 212 209 219 215 221 224 215 206 204 214 243 238 237 233 203 223 214 214 210 207 206 211
370 352 344 354 350 350 348 352 357 359 390 413 419 435 400 545 481 375 329 283 297 300 277 245 245 239 233 239 239 235 229 226 179 226 227 224 214 200 205 208 227 241 237 201 203 235 229 226 222 213 205 210 208 203
404 376 365 352 352 347 350 321 388 382 401 402 418 394 186 519 427 338 321 289 300 299 291 252 245 236 232 226 234 234 226 199 221 162 218 172 212 196 199 224 248 235 233 225 219 229 209 233 223 221 216 209 207 207
428 427 343 187 167 387 148 368 438 275 410 333 392 162 488 228 361 295 301 297 288 282 247 272 251 241 233 228 223 227 228 221 209 213 215 206 206 240 205 246 240 233 229 217 222 226 230 222 227 229 222 220 218 207
430 394 402 396 149 372 265 302 433 408 377 380 451 455 385 315 284 294 274 278 279 270 263 241 289 282 240 227 224 213 194 205 228 172 206 241 232 241 241 227 245 241 229 225 224 217 229 231 218 227 232 229 228 226
518 401 371 370 318 255 404 379 381 364 403 445 314 373 327 290 288 284 278 268 276 272 257 258 262 269 260 258 255 277 251 168 218 214 244 229 225 224 209 222 189 203 233 230 226 221 223 229 232 218 227 219 234 235
524 498 392 389 388 374 388 485 472 487 508 393 336 329 303 249 275 283 275 270 268 271 269 267 271 144 151 260 235 212 236 198 215 220 215 210 234 213 215 226 223 205 211 227 226 223 222 225 227 220 218 220 213 221
574 550 460 463 455 464 490 466 363 344 308 299 286 274 200 259 257 267 266 274 260 249 262 250 271 249 257 239 229 224 198 218 185 224 215 206 213 229 217 227 227 221 183 219 218 227 226 228 229 229 229 232 233 226
344 347 352 341 328 309 284 279 265 271 255 257 258 252 278 265 255 243 247 247 249 254 248 250 242 237 231 212 207 178 204 216 205 214 216 233 230 229 216 210 220 232 232 232 223 228 230 236 236 234 223 219 218 218
269 286 283 284 277 233 223 269 267 258 244 254 241 239 244 215 241 237 231 224 247 221 232 245 249 237 208 211 223 239 227 219 222 210 229 236 224 222 218 217 227 224 225 234 234 227 232 218 231 228 209 212 217 224
284 255 268 272 248 261 263 253 258 252 251 247 239 242 248 226 223 210 202 220 234 219 232 247 199 220 225 238 214 202 253 238 222 212 204 216 226 228 210 212 222 231 232 258 261 257 244 244 235 232 218 217 225 225
273 255 261 267 261 260 255 227 235 248 227 250 254 230 207 228 215 243 241 204 247 229 238 220 211 247 242 242 239 255 227 261 257 242 212 222 227 234 212 216 222 237 240 247 253 256 247 217 215 218 223 224 226 239
224 248 243 239 258 246 230 233 259 232 225 222 252 258 222 246 231 255 250 217 220 238 249 227 244 218 251 253 244 222 241 235 236 237 243 212 210 218 225 264 260 276 261 253 250 253 250 245 243 231 234 243 245 251
258 236 216 234 239 260 264 231 233 233 276 230 255 233 219 266 241 253 256 212 240 273 244 236 255 254 226 258 246 264 245 229 220 224 228 226 240 255 268 266 267 262 258 256 254 251 250 245 229 239 247 261 245 240
233 251 252 245 229 233 238 236 274 235 273 232 249 246 259 235 278 234 264 237 219 221 225 290 230 247 282 231 244 243 269 232 231 231 232 234 237 245 240 235 235 235 238 237 236 243 249 250 251 247 237 240 243 240
241 241 235 235 250 247 248 243 252 227 260 228 256 226 277 230 240 243 234 229 242 265 232 235 239 244 239 256 276 253 255 264 270 262 253 247 252 255 256 257 257 254 254 254 249 245 242 242 242 229 235 236 235 236
239 240 240 236 235 232 228 246 252 252 250 247 260 239 228 235 239 246 252 284 243 241 253 243 258 263 263 260 257 256 253 254 255 255 258 254 251 254 250 246 248 252 248 243 242 239 235 238 238 237 240 246 250 250
244 243 234 238 245 235 238 234 235 237 234 238 242 250 244 225 226 242 243 244 244 243 243 244 247 249 248 249 249 248 249 249 248 248 248 248 250 250 250 252 252 250 246 246 247 247 247 248 252 255 253 258 264 267
243 237 227 230 242 236 235 242 242 239 239 240 236 234 237 239 240 243 241 245 246 245 245 246 248 249 249 249 249 250 251 251 252 251 250 250 249 250 251 252 252 254 254 255 257 259 260 258 258 260 262 263 243 253
240 239 238 237 231 239 246 247 237 240 226 236 233 234 241 243 244 242 241 245 248 250 251 251 250 252 251 253 253 251 248 252 255 256 256 256 254 255 259 261 261 259 258 256 256 260 262 269 267 254 255 261 271 282
239 243 253 251 245 252 261 249 244 244 248 251 252 252 252 252 254 259 251 250 242 243 246 250 249 248 248 248 247 249 249 246 249 250 248 247 251 269 275 277 277 278 266 259 255 255 264 275 282 283 282 277 279 286
259 258 251 251 254 256 255 259 264 260 256 226 226 231 233 260 266 275 276 277 278 277 263 265 270 271 276 279 268 269 274 271 271 271 272 270 267 249 250 251 253 268 268 267 269 275 278 288 292 293 291 294 305 315
246 252 254 240 253 256 253 246 222 206 265 268 267 266 267 270 267 264 268 278 277 275 266 266 268 247 269 273 278 280 278 278 264 272 274 275 276 279 280 280 280 284 290 293 293 298 303 306 308 313 333 382 380 409
261 272 275 271 278 284 303 326 337 344 345 342 341 329 332 339 333 336 332 288 280 284 286 298 323 316 301 296 300 308 310 304 306 315 317 316 315 314 314 315 314 337 346 361 365 364 398 419 419 415 410 407 400 396
269 288 301 314 339 324 319 331 324 326 329 325 327 326 331 340 349 342 336 333 336 343 340 336 347 414 359 354 352 348 350 348 341 338 336 347 355 356 414 361 342 415 414 412 407 397 401 398 394 393 391 388 387 387
297 312 320 326 325 322 332 333 340 340 335 337 346 358 396 359 432 427 418 413 421 428 429 429 430 425 421 420 422 422 422 419 416 416 418 415 413 410 407 408 407 401 398 390 389 390 387 390 389 394 398 400 400 402
316 315 306 305 323 328 327 328 327 344 341 372 393 407 412 412 398 397 397 394 392 394 397 397 397 395 394 390 390 392 395 397 396 394 387 390 381 383 378 384 391 392 403 421 463 476 521 525 526 527 527 524 521 517
315 310 316 308 316 320 326 332 336 338 394 409 408 396 390 396 431 441 438 435 432 424 382 375 375 379 434 423 386 367 360 355 381 382 388 388 386 390 480 534 547 473 455 448 548 534 521 515 511 508 506 505 504 500
321 317 314 310 325 326 336 335 383 409 398 385 377 408 432 441 435 429 420 416 416 411 406 401 395 389 382 378 372 354 380 383 384 388 509 541 459 411 387 375 370 364 361 359 359 368 509 504 502 504 521 548 546 536
317 316 325 327 327 339 381 409 396 384 388 409 440 440 430 420 409 398 394 387 383 383 382 381 381 379 379 380 402 497 517 528 444 399 384 373 365 357 353 354 358 362 366 367 367 365 366 381 501 640 637 637 633 622

GFSWCAN_2pvu_pres_042.txt.gz
Presure
398 383 389 393 391 384 380 363 344 320 310 310 303 305 309 319 354 384 423 335 347 288 261 233 223 239 146 229 225 219 218 218 216 219 222 215 195 204 194 197 200 213 202 202 220 215 203 209 241 249 237 226 213 212
362 366 375 376 366 359 351 329 318 297 313 306 304 303 308 318 325 369 351 355 293 345 273 243 240 122 164 145 211 214 221 219 213 214 215 212 208 211 203 208 207 203 211 216 217 215 227 211 248 245 241 230 220 209
333 335 337 340 344 342 314 313 308 309 309 308 303 299 308 316 329 337 387 399 316 323 287 256 238 242 206 128 224 228 181 224 213 215 213 201 202 197 197 195 208 218 216 216 205 220 222 211 235 242 243 233 228 222
334 324 325 321 317 320 319 314 311 311 308 304 302 308 310 320 324 335 358 240 287 308 324 261 245 238 219 206 229 227 225 224 219 218 216 210 197 200 205 208 214 204 198 212 215 224 217 220 242 241 240 239 232 231
339 332 322 320 318 317 314 314 315 315 316 319 318 318 326 206 325 352 361 383 339 292 316 285 257 237 237 239 235 235 225 222 215 210 210 210 209 209 215 218 213 216 210 221 223 218 205 211 234 237 204 225 229 228
345 337 334 324 322 323 320 322 323 323 327 329 326 322 331 347 344 373 391 383 477 334 293 300 251 238 237 235 233 235 233 225 219 220 217 213 206 211 216 202 195 211 222 222 217 211 212 240 229 227 224 213 221 225
362 344 338 342 306 334 334 337 337 344 351 353 355 355 358 359 368 399 398 403 378 322 282 298 269 247 236 239 237 237 234 227 222 221 222 220 221 218 212 212 215 223 220 220 217 212 243 239 233 229 222 222 221 228
388 370 355 350 240 353 361 363 371 395 413 415 384 380 405 435 411 480 458 424 321 300 284 301 291 246 238 225 235 232 229 229 226 187 225 225 226 228 227 221 220 210 216 213 209 240 235 238 236 235 223 223 223 216
429 402 383 358 385 372 384 146 388 402 420 400 221 355 405 501 492 445 396 315 310 273 277 303 289 247 237 225 229 204 227 229 228 228 225 211 227 209 219 217 209 204 238 206 240 229 218 236 239 236 225 225 223 215
377 374 333 371 234 136 373 367 153 422 466 463 460 466 468 377 368 328 314 298 276 266 288 284 278 250 233 235 226 241 236 230 222 217 222 220 218 221 219 216 214 199 234 234 208 227 221 228 219 237 238 228 224 220
386 388 382 369 376 373 235 422 412 388 359 308 398 482 434 383 319 309 286 270 238 275 273 272 271 287 248 172 230 231 228 226 218 216 212 220 204 214 213 201 212 209 220 206 228 195 216 223 222 217 216 219 230 234
377 346 402 350 352 347 350 347 352 345 339 327 309 305 298 292 287 281 280 279 270 274 272 266 265 267 267 264 265 229 238 224 248 217 222 207 209 247 237 233 229 229 223 227 234 194 213 223 219 238 238 220 223 232
314 308 303 307 325 323 314 307 300 296 297 288 296 290 179 282 282 276 268 275 279 286 273 259 255 252 259 257 259 254 244 238 244 247 216 226 232 242 231 231 231 226 225 229 223 229 237 205 224 231 214 220 224 224
279 280 217 226 273 263 263 262 255 253 258 276 262 262 255 261 262 248 249 240 239 241 251 251 255 248 246 247 247 234 239 228 240 228 230 230 208 234 232 230 222 225 217 221 224 214 218 218 214 213 215 225 222 227
264 253 261 232 264 270 251 252 215 256 263 258 265 258 254 201 229 238 225 247 234 253 247 232 220 248 240 230 242 208 202 227 227 217 230 228 231 220 222 230 224 229 220 212 231 233 226 213 222 232 219 237 226 275
247 234 258 236 258 253 227 242 223 251 215 240 245 225 214 231 241 240 211 252 257 261 259 260 240 231 252 237 244 237 238 226 229 231 218 206 234 229 223 223 220 219 222 217 210 207 206 214 245 220 218 263 261 260
231 271 244 266 233 264 231 209 249 238 253 256 223 254 249 246 244 247 259 202 265 208 263 251 257 238 242 252 216 244 247 239 231 245 248 226 235 245 211 229 234 235 233 223 226 242 245 230 215 228 255 241 245 242
230 230 230 234 264 232 244 229 226 259 236 257 227 253 228 228 230 227 267 232 222 248 218 201 255 264 224 257 214 236 219 208 217 237 242 258 231 238 274 271 258 252 240 241 238 228 219 227 257 240 257 261 260 257
242 231 272 235 231 228 254 248 231 236 253 237 239 256 226 261 246 225 232 244 254 250 254 227 226 218 237 232 263 232 241 222 230 234 222 234 240 240 243 250 254 257 258 256 231 236 247 245 246 258 259 259 254 254
248 245 238 237 243 270 231 275 229 234 269 241 229 239 244 230 244 258 231 232 215 225 252 249 239 239 227 240 239 220 221 225 254 247 231 237 242 261 266 267 252 257 256 255 266 268 257 260 259 258 256 254 250 250
228 239 243 238 233 235 237 233 242 243 237 265 242 243 237 269 229 232 276 234 232 246 234 246 271 234 243 253 227 233 238 238 239 275 241 242 260 262 261 262 263 259 258 258 257 256 255 252 251 252 255 259 261 261
235 235 230 227 222 224 235 243 247 244 229 237 239 241 242 251 251 241 244 252 256 246 239 234 243 248 254 256 259 261 265 270 267 264 259 259 258 257 255 256 256 257 255 255 255 257 260 256 254 248 250 252 256 262
242 242 241 237 234 237 235 236 233 235 232 235 233 231 231 240 242 242 232 237 234 244 257 261 237 241 243 249 249 251 251 252 253 255 252 255 254 253 250 249 247 249 248 256 255 256 255 255 260 269 272 280 283 283
240 239 240 235 240 239 239 242 239 239 225 228 240 241 239 240 241 240 243 243 243 243 244 244 245 246 246 246 246 248 252 248 252 254 253 256 254 251 250 253 255 256 255 253 250 251 254 254 272 267 268 275 285 286
240 241 242 246 244 243 249 251 244 248 252 252 245 248 249 258 267 262 259 252 250 253 258 260 261 260 258 258 261 262 263 262 258 257 253 255 280 277 274 275 274 270 264 271 277 268 283 286 291 292 304 316 320 326
233 237 238 261 255 250 245 253 256 255 257 240 244 232 224 260 262 268 273 276 278 275 262 255 260 263 264 266 269 271 270 273 273 273 272 276 278 280 274 275 277 284 290 299 299 300 308 320 325 334 385 404 427 423
257 250 261 250 253 258 257 266 266 264 247 250 254 312 314 321 326 350 354 354 360 367 371 371 341 342 343 342 344 312 300 297 300 347 343 291 293 310 321 342 366 362 360 356 359 356 418 426 393 421 417 410 402 401
241 253 256 269 270 270 281 282 284 335 333 334 329 364 353 348 368 375 374 377 421 428 437 437 433 433 430 430 429 435 438 436 436 432 423 418 428 430 431 430 424 421 419 415 413 411 407 400 393 428 537 550 562 557
275 273 269 288 280 276 286 321 326 332 326 330 328 326 335 354 361 376 427 423 419 416 417 413 407 409 411 404 403 408 411 410 409 409 408 407 402 398 399 400 400 397 393 392 399 425 557 427 408 393 382 376 372 372
279 274 269 271 313 314 316 329 334 328 327 329 326 340 364 414 415 409 399 395 403 420 448 451 449 444 440 437 410 390 386 385 383 429 388 402 388 373 370 369 394 440 482 427 405 391 379 370 366 369 381 388 387 381
297 310 312 324 321 338 333 318 316 323 335 337 363 412 409 399 396 421 442 445 443 438 432 429 425 420 415 412 408 404 400 396 391 386 386 380 384 486 464 424 405 387 376 366 359 367 375 377 373 373 377 398 397 385
308 324 315 317 323 318 310 321 333 332 338 401 410 397 388 450 448 445 435 426 415 405 400 395 391 390 389 384 384 384 383 381 386 536 441 411 395 383 372 362 356 364 372 371 369 370 374 374 374 370 366 368 392 386
314 326 328 320 321 327 329 324 360 391 405 396 387 459 460 442 424 411 404 395 386 382 378 379 377 374 383 411 528 514 417 397 385 375 366 358 357 363 373 372 373 376 374 372 369 368 367 367 371 377 381 369 365 381

GFSWCAN_2pvu_pres_045.txt.gz
Presure
382 409 460 432 431 402 427 435 402 380 361 342 326 302 277 288 299 307 318 328 472 528 339 329 262 234 228 236 241 230 222 132 184 162 219 219 176 188 176 189 201 188 196 202 208 194 212 206 213 223 216 229 214 233
381 382 437 427 430 422 391 376 369 362 344 322 302 286 282 288 295 306 316 337 437 538 337 328 251 235 232 225 241 232 225 221 223 218 214 206 204 206 209 205 200 173 205 212 222 215 204 209 212 207 209 223 222 230
358 352 386 383 392 379 381 371 353 337 320 296 299 297 295 288 295 305 323 184 419 546 327 324 248 233 235 191 234 240 227 219 221 222 221 216 213 211 211 205 207 207 207 208 182 193 207 207 211 227 215 224 225 217
339 345 352 375 370 367 348 335 324 316 305 301 302 302 304 306 311 319 329 372 408 527 326 323 164 239 235 155 149 189 189 204 156 222 221 215 213 208 211 213 212 214 216 210 199 208 204 210 212 207 218 224 224 219
327 330 332 323 323 328 335 319 307 297 294 300 310 305 297 302 305 309 321 368 395 493 323 328 292 247 238 237 214 206 128 175 229 228 224 219 215 211 213 210 211 209 206 206 206 211 204 214 216 207 221 228 216 217
323 320 317 319 301 315 316 316 310 305 301 299 305 302 302 298 311 316 318 343 393 136 325 319 318 249 243 232 149 241 224 184 231 229 227 223 218 214 213 213 211 212 212 213 209 208 211 214 199 211 223 222 216 240
324 316 164 316 312 308 300 299 298 296 299 306 307 306 299 297 308 303 314 331 250 374 330 324 323 251 244 238 235 229 246 248 238 231 228 224 221 219 218 216 214 206 212 210 202 205 211 206 211 224 223 219 211 251
332 225 317 233 309 309 312 313 311 310 312 313 311 308 306 307 309 324 311 333 348 390 333 313 336 262 244 238 233 229 235 245 238 228 224 220 220 218 218 215 215 211 212 216 212 217 220 218 228 224 213 214 210 232
341 345 267 330 333 225 326 322 320 317 313 314 315 320 317 316 317 328 346 370 359 383 335 290 317 260 246 239 225 231 236 235 237 236 235 228 226 168 211 215 211 215 214 187 223 221 224 222 219 218 211 240 220 234
370 357 356 361 365 362 141 373 359 353 346 333 175 330 331 335 348 358 354 373 375 426 322 278 299 313 257 241 236 227 221 227 226 227 230 228 226 226 225 219 222 222 223 224 222 217 216 219 218 210 212 237 245 224
358 165 391 135 417 405 379 382 390 419 415 394 378 369 357 350 359 381 341 373 368 358 295 297 308 304 260 243 234 226 213 218 232 229 216 182 224 221 224 221 225 225 221 220 219 214 217 221 222 235 194 225 172 245
484 443 464 295 444 144 445 471 419 380 405 382 415 446 523 509 405 338 339 340 334 360 283 279 295 293 270 244 238 230 228 239 188 240 220 240 227 224 217 222 219 218 217 175 209 216 220 220 213 220 222 228 236 228
307 330 332 327 340 319 431 436 449 248 486 412 386 376 377 323 373 351 350 336 348 270 266 268 279 283 272 245 235 169 221 225 223 213 246 234 224 216 220 209 207 209 213 214 215 220 223 210 221 247 238 235 227 235
280 303 294 293 306 313 316 324 303 309 304 343 346 345 342 355 324 322 326 291 258 255 264 272 274 276 262 256 234 231 229 230 228 237 216 219 212 211 213 228 210 214 214 212 202 232 225 238 230 233 228 226 224 217
237 261 270 263 225 268 268 289 286 288 283 274 282 272 278 269 267 267 241 266 264 265 276 274 267 219 216 260 256 242 239 232 232 232 219 215 211 213 228 207 218 225 222 224 226 225 237 235 228 228 232 231 226 236
268 254 227 275 255 222 257 254 248 226 268 251 261 263 261 241 261 230 261 253 267 259 269 263 260 260 243 259 260 260 203 262 220 261 253 210 217 223 236 246 244 244 211 211 236 237 230 213 214 219 231 235 241 237
250 239 232 221 264 235 270 262 232 260 248 207 254 211 252 255 231 261 255 256 259 261 251 245 244 237 250 216 194 207 253 253 256 206 248 249 249 253 247 241 227 235 238 228 241 238 240 242 234 233 230 236 229 237
237 255 283 235 235 232 244 236 267 230 252 223 256 254 246 250 260 245 205 245 207 247 197 200 252 245 246 254 255 251 225 237 239 234 245 237 214 243 252 247 242 221 225 229 239 224 233 246 224 225 244 246 253 261
232 236 248 254 227 248 239 265 274 237 230 259 233 255 219 232 221 227 210 239 243 199 242 245 204 243 248 256 260 261 243 234 237 249 242 223 246 230 226 225 224 240 236 229 226 255 244 240 236 245 241 246 254 272
251 251 239 249 236 227 245 251 240 246 229 239 243 248 230 233 249 223 268 236 260 221 268 246 252 272 220 221 210 228 259 260 261 238 234 243 257 244 231 237 240 256 249 227 229 230 231 232 244 243 249 263 269 263
241 270 231 231 245 237 264 277 231 232 250 228 234 243 276 234 252 241 239 223 220 231 231 226 231 231 246 225 250 278 224 232 258 225 226 260 227 223 256 241 230 222 224 255 256 237 249 261 272 258 261 262 261 262
245 256 252 246 258 226 242 231 254 230 225 260 223 232 235 238 257 243 235 233 232 239 241 231 233 239 241 231 225 229 227 230 245 247 237 234 235 252 260 235 242 272 253 253 268 266 265 263 257 260 262 264 262 256
230 230 225 227 236 242 249 248 227 241 233 236 245 267 233 235 244 239 245 240 242 244 244 246 256 260 247 247 247 254 260 263 261 263 267 251 253 255 258 259 262 258 259 261 264 268 257 259 256 259 260 259 259 262
236 234 228 232 235 237 235 237 235 236 235 236 237 232 229 231 239 241 237 239 253 257 254 255 242 254 258 261 267 264 262 261 259 264 255 254 262 255 254 252 257 262 262 262 261 262 263 263 265 266 267 276 287 282
239 237 233 235 233 237 240 243 246 244 243 247 249 250 249 247 248 233 233 237 246 248 247 249 251 253 246 236 261 261 263 263 228 261 264 262 263 264 265 268 268 267 267 265 272 277 286 288 281 275 278 287 293 305
228 226 238 237 244 252 256 241 238 240 251 254 254 247 257 258 259 266 273 275 276 281 283 285 283 275 274 275 275 280 286 286 282 279 280 279 280 283 290 290 291 291 294 295 297 298 300 305 317 358 359 437 430 424
243 240 241 233 238 230 227 240 252 247 247 252 253 256 256 254 269 280 335 326 360 361 361 327 333 363 378 429 446 442 441 436 388 389 437 439 439 440 441 443 440 436 436 436 434 431 426 418 414 413 411 407 402 419
255 255 258 255 256 266 268 262 260 272 262 276 284 283 287 346 364 361 357 360 363 362 367 429 437 431 425 421 417 416 417 418 419 447 450 418 411 412 415 416 415 415 416 417 412 408 400 396 389 432 424 412 403 393
257 253 251 265 267 254 243 243 273 280 296 297 329 334 340 343 342 340 352 353 375 427 417 408 415 431 442 452 457 457 450 445 442 439 432 428 432 432 427 419 407 397 390 383 386 421 424 411 402 391 381 374 369 384
266 265 268 271 274 282 285 297 311 317 325 327 340 348 348 351 346 349 432 419 421 464 464 459 451 446 441 436 428 420 413 408 406 403 404 403 401 398 392 392 411 433 418 406 395 386 377 370 374 385 385 387 383 376
273 277 275 281 278 295 309 311 324 324 322 339 344 348 348 352 434 412 445 475 464 448 433 427 420 412 404 398 393 394 389 387 382 380 381 436 443 419 405 393 384 376 370 364 375 380 379 375 372 371 369 366 365 365
268 279 293 309 305 306 322 318 311 333 344 342 339 361 431 409 412 475 460 439 419 410 403 396 391 387 383 381 379 381 532 454 422 403 390 381 372 367 359 358 368 368 366 365 366 364 361 359 356 359 374 381 382 382
304 307 303 312 322 312 311 325 336 338 338 366 422 408 396 464 450 427 408 393 386 384 379 377 376 405 516 489 418 396 383 373 363 358 356 358 358 359 361 359 358 356 355 356 360 372 373 370 365 360 370 388 381 370